GFSFLT1_prec_radar_132.txt.gz
Reflectivity
-20 -20 -20 -20 -20 -20 -20 -1 -20 -20 -3 -5 -20 -20 -20 -20 -17 5 9 -8 -20 -20 -20 -20 -20 -20 -20 -20 -20 -20 -20 -20
-20 -20 -20 -20 -20 -12 -20 -20 -20 -20 -20 4 -20 -20 -20 -20 -20 -20 2 9 -2 -20 -20 -20 -20 -20 -20 -20 -20 -20 -20 -20
-20 -20 -20 -20 -20 -20 -12 -20 -20 -20 -20 1 -18 -20 -20 -20 -20 -20 -20 -18 -9 -20 -20 -20 -20 -20 -20 -20 -20 -20 -20 -20
-20 -20 -20 -20 -20 -20 -20 -20 -20 -20 -20 -10 -10 -14 -17 -20 -20 -20 -20 -20 -20 -20 -20 -20 -20 -20 -20 -20 -20 -20 -20 -20
-20 -20 -20 -20 -20 -20 -20 -20 -5 -20 -20 -20 6 -20 -20 -20 -20 -20 -18 -6 -20 -20 -20 -20 -20 -20 -20 -20 -20 -20 -20 -20
-20 -20 -20 -20 -20 -20 -20 -20 -20 -20 -20 -20 -20 -16 -20 -20 -20 -20 -16 10 -20 -20 -20 -20 -18 10 -20 -20 -20 -20 -20 -20
-20 -20 -20 -20 -20 -20 -20 -20 -20 -16 -20 -20 -15 7 -20 -20 -20 -20 11 19 -19 -20 -14 11 10 14 16 -4 -18 -13 -20 -12
1 -20 -20 -20 -20 -20 -20 -20 -20 -20 -20 -20 -7 12 9 -20 -6 -20 6 16 -19 -20 -20 4 11 9 16 14 3 10 1 7
12 4 -20 -20 -20 -20 -20 -20 -20 -20 -20 3 6 -9 8 -12 -1 -20 -20 -20 -20 -20 -20 -20 10 8 10 12 19 8 10 12
27 23 21 6 6 -10 -20 -20 -18 0 -16 9 11 5 2 -19 -17 -13 -18 -20 -19 -20 -11 14 12 11 12 10 22 13 4 12
28 16 20 22 -4 5 -20 -11 5 -16 26 36 20 -18 -19 -3 14 33 18 -10 -20 -20 -6 16 12 15 10 9 15 17 10 17
21 16 25 30 8 6 -10 -8 22 33 28 30 21 14 -7 30 26 31 30 22 -20 -20 8 18 15 17 16 17 12 13 16 12
10 34 28 32 28 12 17 22 30 30 24 28 31 33 -19 22 35 30 33 31 -11 32 29 -2 17 13 9 18 15 5 11 -2
31 41 37 26 1 -20 -6 19 13 30 27 23 32 30 24 29 26 31 33 30 23 -7 8 7 -11 -3 -4 8 -9 -20 -10 10
38 38 36 17 26 23 -9 -0 22 31 27 33 29 24 27 31 33 34 29 19 -5 13 6 26 24 -7 -20 -19 -20 1 -8 8
38 39 37 15 37 31 20 25 22 19 13 -6 -12 -16 -12 -3 -0 2 8 -0 -20 10 20 26 27 -4 5 -20 -20 8 -2 -7
36 35 32 19 11 15 13 10 9 7 8 4 13 1 -20 -20 -8 -20 -20 -19 1 -20 21 26 -3 27 12 11 -7 -20 -20 -20
25 25 27 26 5 -20 -19 -20 -20 -20 -19 5 6 15 20 15 20 -15 5 11 2 22 28 3 24 -17 6 0 8 -20 -15 -12
5 20 19 27 22 6 -16 -20 -20 -20 -20 -20 -20 -20 4 5 -4 21 -3 4 3 19 33 22 -1 -18 1 3 10 -20 -14 9

GFSFLT1_prec_radar_135.txt.gz
Reflectivity
-20 -20 -20 -20 -20 -20 -20 -20 -20 -20 -20 -9 -5 -5 -20 -20 -20 -20 -20 -20 -20 -20 -20 -20 -20 -20 -20 -20 -19 -20 -20 -20
-20 -20 -20 -20 -20 -20 -20 -20 -20 -20 -20 -20 -20 -20 -20 -20 -20 -20 -20 5 -20 -20 -20 -20 -20 -20 -20 -20 -5 -20 -20 -3
-20 -20 -20 -20 -20 -20 -20 -20 -20 -20 -20 -20 -20 -20 -20 -18 -17 -20 -20 -12 -16 -20 -20 -20 -20 -20 -20 -20 -20 -18 -20 -16
-20 -20 -20 -20 -20 -20 -20 -20 -20 -20 -20 0 -7 4 -20 6 5 -20 -20 -19 -20 -10 -20 -20 -20 -20 -20 -20 -20 -20 -20 -13
-20 -20 -20 -20 -20 -20 -20 -20 -20 -20 -20 -4 23 -11 -20 -20 -20 -20 -19 -20 -20 -20 -10 -20 -20 -20 -20 -20 -20 -20 -20 -20
-12 -19 -20 -20 -20 -20 -20 -20 -20 -20 -20 -20 -10 -1 -20 -20 8 -18 -20 -20 -19 -6 -10 -20 -20 -20 -20 -20 -20 -20 -20 -20
42 26 4 -20 -20 -20 -20 -20 -20 -20 -20 -20 -14 -20 -20 -20 -19 0 -20 -20 -6 -18 8 -20 -20 -20 -20 -20 -20 -20 -20 -20
35 3 8 3 -20 -20 -20 -20 -20 -20 -20 -20 -12 -20 -20 -20 -6 7 -20 -20 -20 -10 5 -13 -20 -20 -20 -9 -18 -19 -11 -15
31 2 13 26 5 -0 -20 -20 -20 -20 -20 -20 -20 -20 -6 -20 -7 7 -20 -20 -20 -20 9 -14 -20 -20 -20 -9 18 7 -3 -15
29 15 16 21 16 14 1 -18 -20 -20 -20 -20 -20 -17 8 11 -6 3 -18 -20 -20 -20 0 17 -2 -20 -20 11 10 8 -15 2
29 30 28 15 21 15 -9 -14 -14 -20 -10 9 5 12 13 3 9 10 -10 -20 -20 -10 13 3 13 -20 -20 -20 -20 -10 8 15
28 36 31 19 21 17 21 13 18 9 12 16 -2 -13 16 16 15 6 -10 -17 12 -3 7 16 12 4 -20 3 6 11 17 15
32 25 29 28 29 28 21 -20 -20 -20 -20 2 -20 -20 8 28 30 -14 31 21 -17 30 32 31 10 -16 -20 9 14 14 14 5
33 35 39 36 31 27 21 -14 -20 -20 -20 -20 14 10 24 15 24 2 -19 -20 -16 18 31 13 28 31 14 -20 16 3 13 17
34 35 34 36 29 27 -14 -10 -14 -13 -16 19 17 30 25 36 18 18 17 -9 3 24 36 33 32 29 27 20 9 8 13 -9
21 27 32 38 36 33 17 3 16 32 31 41 37 28 33 37 35 33 9 18 29 35 29 27 30 31 28 20 -12 -20 -20 -20
11 23 29 33 32 30 32 31 33 34 35 22 9 24 23 25 25 15 11 14 17 31 34 26 33 29 26 23 5 6 -9 -20
-5 18 20 28 28 27 15 19 7 13 15 19 9 -1 1 -1 10 9 16 26 25 27 13 12 31 25 28 32 40 26 -4 -20
-20 -6 19 20 31 23 15 3 -11 -18 -20 -20 -11 -11 11 8 19 21 -6 -3 -5 19 -16 14 27 24 31 9 5 -18 -20 -20

GFSFLT1_prec_radar_138.txt.gz
Reflectivity
-20 -20 -20 -20 -20 -20 -20 -20 -20 -20 -20 -20 -20 -20 -20 -20 -20 -20 -18 -4 -20 -20 -20 -20 -20 -20 -20 -20 -19 -20 -20 -20
-20 -20 -20 -20 -20 -20 -20 -20 -20 -20 -20 -20 -20 -20 -20 -20 -20 -20 -20 -3 -16 -20 -20 -20 -20 -20 -20 -20 -20 -20 3 -3
-20 -20 -20 -20 -20 -20 -20 -20 -20 -20 -20 -20 -20 -20 -20 -17 -20 -20 -20 -8 -2 -20 -20 -20 -20 -20 -20 -20 -20 -14 2 1
-20 -20 -20 -19 -20 -20 -20 -20 -20 -20 -20 -20 -20 -9 -8 17 -19 -20 -20 -6 -7 -20 -20 -20 -5 -20 -16 -20 -20 -20 5 -6
-20 -1 5 -17 -9 -18 -20 -20 -20 -20 -20 -20 -20 -16 -16 -20 -20 -20 -20 -20 2 -7 -20 -20 -5 -20 -20 -5 -20 -20 -20 1
-10 -20 -20 -20 -20 -3 -20 -20 -20 -20 -20 -20 -20 -20 -14 34 8 -18 -20 -5 -0 -19 -1 -2 1 -13 -20 -20 -20 -11 -20 -19
-3 -20 -6 -20 -5 -1 -20 -20 -20 -20 -20 -20 -20 -20 -20 3 38 -1 -20 -2 -4 -20 -20 -2 -5 -7 -6 -2 -14 -20 -20 -15
-20 -5 16 8 23 11 1 -20 -20 -20 -20 -20 -20 -20 -20 -20 -19 -20 -5 1 -17 -20 -7 -17 -16 1 -1 -1 0 -18 -3 -3
-20 18 17 24 24 13 2 -20 -20 -20 -20 -20 -20 -20 -20 -20 20 10 15 3 -2 -6 -2 -20 -20 1 2 -12 -4 -3 -10 1
-20 28 23 22 22 26 26 -20 -20 -20 -20 -20 -20 -20 -20 -20 -20 -20 -18 -2 4 6 -2 -1 2 -20 -20 -20 -20 -18 3 7
-5 15 33 15 20 25 10 -2 8 -11 -13 -20 -20 -20 -20 -20 -6 0 6 9 3 10 0 14 -2 -20 -17 -4 -1 5 5 -6
22 17 35 20 18 13 17 19 16 -18 -19 -20 17 32 27 12 11 12 7 9 6 8 -14 -7 7 18 24 28 29 -16 -3 0
16 23 29 31 21 24 12 1 7 28 12 -20 -20 -7 4 -2 4 17 19 18 13 -19 -15 6 -1 20 22 -0 33 32 4 -0
5 27 32 35 30 27 25 16 12 22 8 10 -3 17 20 2 3 6 -9 -20 -17 -11 -5 12 17 13 2 10 32 29 29 7
-6 22 28 34 33 31 27 20 6 12 -14 15 4 -17 -12 27 28 25 0 21 22 3 9 -13 2 -20 -12 27 23 29 6 21
4 15 25 34 34 37 32 21 -7 -20 -20 -20 21 24 -17 18 22 25 20 20 26 18 5 -1 13 8 12 22 33 33 15 21
-11 1 18 25 34 26 31 36 23 11 7 1 -20 -6 0 7 4 32 39 -4 2 14 -20 -8 -5 -17 9 27 26 36 29 27
-8 1 -1 12 28 30 27 23 32 34 41 37 27 19 30 24 30 25 18 35 20 14 4 22 24 23 24 38 33 34 35 31
-20 -20 -20 -6 7 18 28 15 23 11 24 15 31 24 22 24 28 29 25 33 33 25 15 23 35 31 34 22 38 35 39 29

GFSFLT1_prec_radar_141.txt.gz
Reflectivity
-20 -20 -20 -20 -20 -20 -20 -20 -20 -20 -20 -20 -20 26 -20 -20 -20 -20 -20 -13 -20 -20 -20 -20 -20 -20 -20 -20 1 -5 -1 -20
-20 -20 -20 -20 -20 -20 -20 -20 -20 -20 -20 -20 -20 -20 28 31 -20 -20 -20 -13 -20 -20 -20 -20 -20 -20 -20 -20 -2 -20 -12 -20
-20 -20 -20 -20 -20 -20 -20 -20 -20 -20 -20 -20 -20 -20 -20 -1 -20 -20 -20 -20 -20 -20 -20 -20 -20 -20 -20 -20 -20 -20 -20 -20
-20 -20 -20 -20 -20 -20 -20 -20 -20 -20 -20 -20 -20 -20 -20 20 32 31 -20 -20 -19 -20 -20 -20 -20 -20 -20 -20 -20 -20 -20 -10
-20 -20 -20 -20 -20 -20 -20 -20 -20 -20 -20 -20 -20 -20 -20 -20 -7 33 -16 -20 -16 -20 -20 -20 -20 -20 -20 -20 -20 -20 -20 -17
-20 -20 -20 -20 -19 -20 -20 -20 -20 -20 -20 -20 -20 -20 -20 -20 -20 31 34 4 -3 -20 -17 -20 -20 -20 -20 -20 -20 -20 -20 -20
-20 -20 -20 -20 -16 -18 -20 -20 -20 -20 -20 -20 -20 -20 -20 -20 -20 -20 36 29 12 -0 -20 7 -20 -20 -20 -20 -20 -20 -20 -20
-15 -20 -20 -20 -20 4 -16 -16 -10 -20 -20 -20 -20 -20 -20 -20 -20 -20 16 33 22 4 -20 5 3 -20 -20 -19 -19 -20 -20 -20
-20 -20 -20 -10 -20 13 10 -7 4 -20 -20 -20 -20 -20 -20 -20 8 -20 -10 30 23 19 -20 -6 4 4 -3 -16 1 -20 -20 -20
-20 -20 -20 2 -5 17 26 8 10 -1 5 -20 -20 -20 -20 -20 -20 -20 5 28 42 35 -4 -9 0 8 7 1 1 1 -10 -8
-20 -20 -20 5 -4 21 28 23 18 18 20 -19 -11 -20 -20 -20 -10 -2 16 4 22 18 3 13 22 2 -0 7 6 4 3 3
-20 -20 -20 -17 -13 14 18 21 18 21 9 17 6 -20 -20 -20 2 32 50 39 32 32 15 24 17 -2 17 12 -18 -7 -10 8
-20 -20 -20 -17 -15 13 5 8 16 9 27 20 34 -3 -9 36 35 26 40 39 38 8 15 14 -18 -17 9 -10 -18 -16 -0 -1
-20 -20 -12 8 29 14 17 12 8 18 10 19 24 -13 -13 32 -11 30 33 14 -7 -20 34 20 -20 -7 10 -13 0 -9 -6 -20
-20 -20 -20 20 31 24 17 14 4 5 -16 9 -0 9 20 13 9 1 6 9 1 -3 18 -12 -12 -20 10 11 12 14 -10 -11
-20 -9 -20 -4 28 37 27 21 7 -8 -1 -9 19 -1 26 -8 -16 -20 -0 22 33 24 26 13 26 34 18 12 23 18 17 -4
-20 -20 -20 -18 7 27 35 26 20 1 -14 -20 -20 -20 -20 -13 -20 -20 -11 -13 23 27 25 15 27 27 28 15 18 24 -4 29
-20 -20 -20 -20 -0 8 21 32 27 14 -10 -2 5 -20 -20 -20 -20 -20 -20 -10 -5 24 17 11 -8 12 17 4 9 16 5 -20
-20 -20 -20 -20 -7 -2 5 11 28 13 12 16 26 34 10 -6 -3 18 -12 -11 2 20 39 33 30 -2 5 -6 11 8 19 24

GFSFLT1_prec_radar_147.txt.gz
Reflectivity
-20 -20 -20 -20 -20 -20 -20 -20 -20 -20 -20 -20 -20 -20 -20 -20 -20 -20 -20 -6 34 -20 -20 -20 -20 -20 -20 -20 -20 -20 -20 -20
-20 -20 -20 -20 -20 -20 -20 -20 -20 -20 -20 -20 -20 -20 -20 -20 -20 -20 -20 -20 -20 9 -20 -20 -20 -20 -20 -20 -20 -20 -20 -20
-20 -20 -20 -20 -20 -20 -20 -20 -20 -20 -20 -20 -20 -20 -20 -20 -20 -20 -20 -20 -20 -20 -10 -19 -20 -20 -20 -20 -20 -20 -20 -20
-20 -20 -20 -20 -20 -20 -20 -20 -20 -20 -20 -20 -20 -20 -20 -20 -20 -20 -20 -20 -20 -20 34 33 -8 -20 -20 -20 -20 -20 -20 -20
-20 -20 -20 -20 -20 -20 -20 -20 -20 -20 -20 -20 -20 -20 -20 -20 -20 -20 -20 -20 -20 -20 -20 34 9 -5 -20 -20 -20 -20 -20 -20
-20 -20 -20 -20 -20 -20 -20 -20 -20 -20 -20 -20 -20 -20 -20 -20 -20 -20 -20 -20 -20 -20 -20 -19 31 16 4 -20 -20 -20 -20 -20
-20 -20 -20 -20 -20 -20 -20 -20 -20 -20 -20 -20 -20 -16 -18 -18 -20 -20 -20 -20 -20 -20 -20 -0 19 48 30 -4 -20 -20 -20 -20
-20 -20 -20 -20 -20 -20 -20 -20 -20 -20 -20 -20 -19 -3 -8 9 13 -19 -20 -20 -20 -20 -20 -8 16 44 44 22 5 -20 -20 -20
-20 -20 -20 -20 -20 -20 -20 -20 -20 -20 -16 -15 -18 -11 13 16 3 11 -20 -20 -20 -20 18 2 -9 17 45 31 8 -7 -20 -20
-20 -20 -20 -20 -20 -20 -20 -20 -20 2 15 6 -4 6 14 16 13 14 17 -20 -16 -20 -20 -20 2 17 37 34 33 -3 -20 -20
-20 -20 -20 -20 -20 -20 -20 -20 -20 16 15 25 19 16 16 15 12 -8 22 -10 -20 -20 -20 -20 17 23 25 48 37 4 0 -20
-20 -20 -20 -20 -20 -20 -20 -20 -20 -19 4 24 25 7 18 14 11 -20 23 28 -20 -20 -20 -20 19 33 24 49 39 33 35 -10
-20 -20 -20 -20 -20 -20 -20 -20 -20 -20 -12 14 8 22 27 23 10 1 7 4 16 -20 1 -20 18 21 24 45 35 40 33 -1
-20 -20 -20 -20 -20 -20 -20 -20 -20 -20 -20 9 14 24 10 21 27 21 12 -19 -8 17 23 10 8 19 10 16 40 49 35 16
-20 -20 -20 -20 -20 -20 -20 -20 -20 -20 -20 -20 1 -6 14 18 36 31 38 24 8 5 -5 18 31 3 26 34 34 44 32 6
-20 -20 -20 -20 -20 -20 -20 -20 -20 -20 -20 -20 -20 -20 -20 -20 10 11 35 33 40 39 18 28 27 32 22 29 39 36 32 27
-20 -20 -20 -20 -20 -20 -20 -20 -20 -20 -20 -20 -20 -20 -19 -13 -20 2 6 13 22 27 16 10 -5 14 15 20 16 2 29 22
-20 -20 -20 -20 -20 -20 -20 -20 -20 -20 -20 -20 -20 -20 -20 -20 -20 -13 -20 -5 8 22 19 14 5 29 21 -6 10 26 30 1
-20 -20 -20 -20 -20 -20 -20 -20 -20 -20 -20 -20 -20 -20 -20 -20 -20 -9 9 -11 -6 -6 5 14 12 24 10 4 6 31 31 36